Cloud_Cover
100 100 100 100 100 87 96 100 90 56 59 100 100 42 14 86 75 5 5 5 5 0 0 0 0 0 5 5 5 5 5 83 100 100 100 100 100 100
100 100 100 100 99 99 94 76 30 44 7 97 71 13 5 5 47 5 2 5 6 5 1 0 0 0 5 5 5 5 22 62 92 100 100 100 100 100
100 100 100 99 97 100 100 84 84 100 44 5 7 59 23 90 51 68 98 47 35 5 3 0 0 0 0 5 5 5 5 46 100 100 100 100 100 100
100 100 100 100 100 100 100 100 100 94 58 39 33 56 65 45 5 7 40 37 88 98 5 0 0 0 0 0 4 5 5 10 70 7 41 100 100 100
100 100 100 100 100 100 100 100 100 71 94 80 25 16 93 92 85 68 24 38 68 82 2 1 0 0 0 0 0 0 1 5 5 5 5 5 13 79
100 94 95 98 100 100 100 100 100 93 79 91 56 42 74 71 100 94 29 100 89 79 5 5 5 3 5 5 5 2 3 5 5 5 5 5 5 36
100 76 93 100 100 100 100 100 100 60 55 85 71 87 76 78 90 57 100 100 59 93 18 59 83 29 5 10 17 95 32 9 4 5 5 5 52 61
86 88 100 100 100 53 61 76 94 12 5 5 5 5 6 99 87 96 100 100 97 96 100 47 88 24 77 36 99 17 5 5 0 3 5 5 5 5
96 96 96 72 47 57 78 96 92 15 5 19 17 5 5 22 42 65 100 100 100 89 98 8 74 69 98 82 55 47 6 5 4 5 4 4 5 5
39 29 5 5 5 6 84 40 12 19 31 98 83 23 75 34 59 100 99 83 56 73 94 76 92 82 82 20 5 76 13 5 4 5 0 2 5 5
5 5 5 5 5 6 24 28 5 5 12 100 100 100 92 5 99 100 100 100 11 94 100 96 72 23 82 5 28 72 5 76 10 5 5 10 64 5
5 9 5 5 5 5 62 26 5 5 5 63 100 100 79 18 100 100 90 74 96 72 100 98 99 89 32 14 86 55 40 34 27 5 5 88 92 58
5 5 5 5 5 4 6 67 84 53 11 5 63 99 61 90 64 91 97 26 90 100 100 100 99 99 100 74 78 80 89 53 78 31 5 96 100 95
5 5 5 5 5 4 3 3 8 89 100 96 100 100 100 85 100 95 92 28 59 84 100 100 92 96 99 73 87 40 87 12 27 7 65 100 77 88
5 5 5 5 5 5 5 5 21 66 99 100 100 100 100 100 100 100 100 100 95 79 100 100 81 98 99 95 80 85 91 82 10 94 100 44 87 100
5 5 5 5 6 6 5 12 31 62 100 100 100 88 100 100 71 66 100 92 98 91 100 99 74 30 89 99 96 33 92 98 30 100 52 75 88 40
43 14 79 43 39 39 34 33 9 100 92 100 100 100 100 100 100 100 100 100 100 100 100 96 95 83 85 32 14 100 96 84 99 71 91 67 67 50
53 95 100 100 100 100 97 83 41 78 60 100 100 100 100 100 98 100 99 100 100 100 100 100 96 98 92 42 99 99 100 100 78 97 98 85 66 23
84 94 100 100 100 100 100 100 100 91 96 100 100 100 100 100 97 83 99 100 100 100 100 100 100 100 100 100 94 86 93 99 100 100 100 100 100 46
100 100 100 100 100 100 100 100 100 100 100 100 100 100 100 74 80 99 100 100 100 100 100 100 100 100 100 87 66 10 12 82 99 100 100 92 44 91
100 100 100 100 100 100 100 100 100 100 100 100 78 100 100 100 94 100 100 100 100 100 100 100 100 85 12 8 27 18 100 80 60 71 91 97 90 88
100 100 100 100 100 100 100 100 100 100 100 100 100 97 93 100 98 100 100 100 100 100 100 100 100 62 68 96 66 57 95 62 17 5 20 31 73 96
100 100 100 100 100 100 100 100 100 100 100 100 100 100 100 100 100 100 100 100 100 100 100 100 100 100 89 89 69 64 94 79 62 67 59 96 6 5